Time,TemperatureF,DewpointF,PressureIn,WindDirection,WindDirectionDegrees,WindSpeedMPH,WindSpeedGustMPH,Humidity,HourlyPrecipIn,Conditions,Clouds,dailyrainin,SoftwareType,DateUTC
2013-07-20 00:04:00,79.6,71.0,29.66,West,263,3.0,6.0,75,0.00,,,0.00,Wunderground v.1.15,2013-07-20 04:04:00,
2013-07-20 00:14:00,79.2,70.6,29.67,WSW,257,5.0,7.0,75,0.00,,,0.00,Wunderground v.1.15,2013-07-20 04:14:00,
2013-07-20 00:25:00,78.8,70.2,29.66,West,262,4.0,7.0,75,0.00,,,0.00,Wunderground v.1.15,2013-07-20 04:25:00,
2013-07-20 00:34:00,78.6,70.0,29.66,West,262,1.0,2.0,75,0.00,,,0.00,Wunderground v.1.15,2013-07-20 04:34:00,
2013-07-20 00:45:00,78.5,70.3,29.66,West,262,1.0,1.0,76,0.00,,,0.00,Wunderground v.1.15,2013-07-20 04:45:00,
2013-07-20 00:54:00,78.3,70.1,29.66,West,262,0.0,0.0,76,0.00,,,0.00,Wunderground v.1.15,2013-07-20 04:54:00,
2013-07-20 01:05:00,78.1,70.3,29.66,West,262,0.0,0.0,77,0.00,,,0.00,Wunderground v.1.15,2013-07-20 05:05:00,
2013-07-20 01:14:00,77.9,70.5,29.66,West,262,0.0,3.0,78,0.00,,,0.00,Wunderground v.1.15,2013-07-20 05:14:00,
2013-07-20 01:25:00,77.6,70.6,29.67,West,262,3.0,3.0,79,0.00,,,0.00,Wunderground v.1.15,2013-07-20 05:25:00,
2013-07-20 01:34:00,77.4,70.7,29.67,West,262,2.0,2.0,80,0.00,,,0.00,Wunderground v.1.15,2013-07-20 05:34:00,
2013-07-20 01:45:00,77.0,70.4,29.67,West,262,1.0,1.0,80,0.00,,,0.00,Wunderground v.1.15,2013-07-20 05:45:00,
2013-07-20 01:54:00,76.7,70.1,29.67,West,262,2.0,2.0,80,0.00,,,0.00,Wunderground v.1.15,2013-07-20 05:54:00,
2013-07-20 02:04:00,76.3,69.3,29.67,West,262,1.0,1.0,79,0.00,,,0.00,Wunderground v.1.15,2013-07-20 06:04:00,
2013-07-20 02:15:00,76.0,69.4,29.66,West,262,0.0,0.0,80,0.00,,,0.00,Wunderground v.1.15,2013-07-20 06:15:00,
2013-07-20 02:24:00,75.6,69.0,29.67,West,262,0.0,0.0,80,0.00,,,0.00,Wunderground v.1.15,2013-07-20 06:24:00,
2013-07-20 02:35:00,75.3,69.1,29.67,West,262,0.0,0.0,81,0.00,,,0.00,Wunderground v.1.15,2013-07-20 06:35:00,
2013-07-20 02:44:00,74.7,68.8,29.67,West,262,0.0,0.0,82,0.00,,,0.00,Wunderground v.1.15,2013-07-20 06:44:00,
2013-07-20 02:55:00,74.2,69.1,29.67,West,262,0.0,0.0,84,0.00,,,0.00,Wunderground v.1.15,2013-07-20 06:55:00,
2013-07-20 03:04:00,73.9,69.1,29.67,West,262,0.0,0.0,85,0.00,,,0.00,Wunderground v.1.15,2013-07-20 07:04:00,
2013-07-20 03:15:00,73.5,69.4,29.67,West,262,0.0,0.0,87,0.00,,,0.00,Wunderground v.1.15,2013-07-20 07:15:00,
2013-07-20 03:24:00,73.2,69.4,29.67,West,262,0.0,0.0,88,0.00,,,0.00,Wunderground v.1.15,2013-07-20 07:24:00,
2013-07-20 03:35:00,73.0,69.2,29.67,West,262,0.0,0.0,88,0.00,,,0.00,Wunderground v.1.15,2013-07-20 07:35:00,
2013-07-20 03:45:00,72.8,69.0,29.67,West,263,0.0,0.0,88,0.00,,,0.00,Wunderground v.1.15,2013-07-20 07:45:00,
2013-07-20 03:54:00,72.7,69.3,29.68,West,263,1.0,2.0,89,0.00,,,0.00,Wunderground v.1.15,2013-07-20 07:54:00,
2013-07-20 04:05:00,72.3,69.2,29.68,West,265,1.0,3.0,90,0.00,,,0.00,Wunderground v.1.15,2013-07-20 08:05:00,
2013-07-20 04:14:00,72.1,69.0,29.69,West,272,1.0,1.0,90,0.00,,,0.00,Wunderground v.1.15,2013-07-20 08:14:00,
2013-07-20 04:24:00,72.0,68.9,29.69,NNW,341,1.0,3.0,90,0.00,,,0.00,Wunderground v.1.15,2013-07-20 08:24:00,
2013-07-20 04:35:00,71.8,68.7,29.69,North,5,2.0,7.0,90,0.00,,,0.00,Wunderground v.1.15,2013-07-20 08:35:00,
2013-07-20 04:44:00,71.6,67.5,29.69,North,5,1.0,1.0,87,0.00,,,0.00,Wunderground v.1.15,2013-07-20 08:44:00,
2013-07-20 04:55:00,71.5,66.4,29.69,NNE,29,2.0,2.0,84,0.00,,,0.00,Wunderground v.1.15,2013-07-20 08:55:00,
2013-07-20 05:05:00,71.3,65.9,29.69,NNE,29,1.0,1.0,83,0.00,,,0.00,Wunderground v.1.15,2013-07-20 09:05:00,
2013-07-20 05:14:00,71.1,65.0,29.69,NNE,29,2.0,2.0,81,0.00,,,0.00,Wunderground v.1.15,2013-07-20 09:14:00,
2013-07-20 05:25:00,70.9,64.8,29.69,NNE,29,1.0,3.0,81,0.00,,,0.00,Wunderground v.1.15,2013-07-20 09:25:00,
2013-07-20 05:34:00,70.6,64.5,29.69,NNE,29,0.0,0.0,81,0.00,,,0.00,Wunderground v.1.15,2013-07-20 09:34:00,
2013-07-20 05:45:00,70.1,64.0,29.70,NNE,29,0.0,0.0,81,0.00,,,0.00,Wunderground v.1.15,2013-07-20 09:45:00,
2013-07-20 05:54:00,69.3,63.6,29.70,NNE,29,0.0,0.0,82,0.00,,,0.00,Wunderground v.1.15,2013-07-20 09:54:00,
2013-07-20 06:04:00,68.3,63.3,29.70,NNE,29,0.0,0.0,84,0.00,,,0.00,Wunderground v.1.15,2013-07-20 10:04:00,
2013-07-20 06:15:00,67.4,62.7,29.71,NNE,29,0.0,0.0,85,0.00,,,0.00,Wunderground v.1.15,2013-07-20 10:15:00,
2013-07-20 06:24:00,66.6,62.6,29.72,NNE,29,0.0,0.0,87,0.00,,,0.00,Wunderground v.1.15,2013-07-20 10:24:00,
2013-07-20 06:35:00,66.0,62.3,29.72,NNE,29,0.0,0.0,88,0.00,,,0.00,Wunderground v.1.15,2013-07-20 10:35:00,
2013-07-20 06:44:00,66.0,63.0,29.73,NNE,29,0.0,0.0,90,0.00,,,0.00,Wunderground v.1.15,2013-07-20 10:44:00,
2013-07-20 06:55:00,66.0,63.0,29.74,NNE,29,0.0,0.0,90,0.00,,,0.00,Wunderground v.1.15,2013-07-20 10:55:00,
2013-07-20 07:05:00,65.8,63.1,29.74,NNE,29,0.0,0.0,91,0.00,,,0.00,Wunderground v.1.15,2013-07-20 11:05:00,
2013-07-20 07:15:00,65.8,63.1,29.74,NNE,29,0.0,0.0,91,0.00,,,0.00,Wunderground v.1.15,2013-07-20 11:15:00,
2013-07-20 07:24:00,66.1,64.0,29.74,NNE,29,0.0,0.0,93,0.00,,,0.00,Wunderground v.1.15,2013-07-20 11:24:00,
2013-07-20 07:35:00,66.8,64.7,29.74,NNE,29,0.0,0.0,93,0.00,,,0.00,Wunderground v.1.15,2013-07-20 11:35:00,
2013-07-20 07:44:00,67.4,65.0,29.75,NNE,29,0.0,0.0,92,0.00,,,0.00,Wunderground v.1.15,2013-07-20 11:44:00,
2013-07-20 07:55:00,68.4,65.4,29.75,NNE,29,0.0,0.0,90,0.00,,,0.00,Wunderground v.1.15,2013-07-20 11:55:00,
2013-07-20 08:05:00,69.4,65.4,29.75,NNE,29,0.0,0.0,87,0.00,,,0.00,Wunderground v.1.15,2013-07-20 12:05:00,
2013-07-20 08:15:00,70.4,65.7,29.76,NNE,29,0.0,0.0,85,0.00,,,0.00,Wunderground v.1.15,2013-07-20 12:15:00,
2013-07-20 08:24:00,71.1,65.3,29.76,NNE,29,0.0,2.0,82,0.00,,,0.00,Wunderground v.1.15,2013-07-20 12:24:00,
2013-07-20 08:35:00,72.1,65.6,29.76,NNE,29,1.0,1.0,80,0.00,,,0.00,Wunderground v.1.15,2013-07-20 12:35:00,
2013-07-20 08:45:00,72.8,65.2,29.77,NNE,29,1.0,1.0,77,0.00,,,0.00,Wunderground v.1.15,2013-07-20 12:45:00,
2013-07-20 08:54:00,73.7,65.7,29.77,NNE,29,1.0,1.0,76,0.00,,,0.00,Wunderground v.1.15,2013-07-20 12:54:00,
2013-07-20 09:04:00,74.7,66.6,29.77,NNE,29,0.0,0.0,76,0.00,,,0.00,Wunderground v.1.15,2013-07-20 13:04:00,
2013-07-20 09:15:00,75.8,66.1,29.77,NNE,32,2.0,5.0,72,0.00,,,0.00,Wunderground v.1.15,2013-07-20 13:15:00,
2013-07-20 09:24:00,76.0,65.9,29.77,ENE,67,4.0,4.0,71,0.00,,,0.00,Wunderground v.1.15,2013-07-20 13:24:00,
2013-07-20 09:35:00,76.7,65.8,29.77,ENE,71,3.0,3.0,69,0.00,,,0.00,Wunderground v.1.15,2013-07-20 13:35:00,
2013-07-20 09:45:00,77.6,65.8,29.78,ENE,71,1.0,1.0,67,0.00,,,0.00,Wunderground v.1.15,2013-07-20 13:45:00,
2013-07-20 09:54:00,77.7,62.2,29.77,ENE,78,2.0,2.0,59,0.00,,,0.00,Wunderground v.1.15,2013-07-20 13:54:00,
2013-07-20 10:04:00,78.6,64.0,29.77,ENE,78,2.0,2.0,61,0.00,,,0.00,Wunderground v.1.15,2013-07-20 14:04:00,
2013-07-20 10:15:00,79.2,60.6,29.77,ENE,78,1.0,3.0,53,0.00,,,0.00,Wunderground v.1.15,2013-07-20 14:15:00,
2013-07-20 10:25:00,80.3,63.2,29.78,ENE,78,1.0,1.0,56,0.00,,,0.00,Wunderground v.1.15,2013-07-20 14:25:00,
2013-07-20 10:34:00,80.5,61.3,29.78,ENE,78,1.0,2.0,52,0.00,,,0.00,Wunderground v.1.15,2013-07-20 14:34:00,
2013-07-20 10:45:00,81.2,57.2,29.79,ENE,62,3.0,3.0,44,0.00,,,0.00,Wunderground v.1.15,2013-07-20 14:45:00,
2013-07-20 10:54:00,81.4,58.0,29.79,NE,46,1.0,1.0,45,0.00,,,0.00,Wunderground v.1.15,2013-07-20 14:54:00,
2013-07-20 11:04:00,82.2,56.8,29.79,NE,34,2.0,2.0,42,0.00,,,0.00,Wunderground v.1.15,2013-07-20 15:04:00,
2013-07-20 11:15:00,82.8,56.7,29.79,NE,34,2.0,2.0,41,0.00,,,0.00,Wunderground v.1.15,2013-07-20 15:15:00,
2013-07-20 11:24:00,82.8,56.0,29.79,NNE,15,1.0,1.0,40,0.00,,,0.00,Wunderground v.1.15,2013-07-20 15:24:00,
2013-07-20 11:34:00,82.8,58.0,29.79,NNE,15,0.0,4.0,43,0.00,,,0.00,Wunderground v.1.15,2013-07-20 15:34:00,
2013-07-20 11:44:00,83.2,56.4,29.79,NNE,15,1.0,1.0,40,0.00,,,0.00,Wunderground v.1.15,2013-07-20 15:44:00,
2013-07-20 11:55:00,82.8,58.0,29.79,North,355,1.0,6.0,43,0.00,,,0.00,Wunderground v.1.15,2013-07-20 15:55:00,
2013-07-20 12:04:00,82.2,57.5,29.79,North,355,2.0,2.0,43,0.00,,,0.00,Wunderground v.1.15,2013-07-20 16:04:00,
2013-07-20 12:15:00,82.8,58.0,29.79,North,355,1.0,1.0,43,0.00,,,0.00,Wunderground v.1.15,2013-07-20 16:15:00,
2013-07-20 12:24:00,83.2,55.0,29.79,North,351,1.0,1.0,38,0.00,,,0.00,Wunderground v.1.15,2013-07-20 16:24:00,
2013-07-20 12:35:00,82.6,57.2,29.79,West,262,2.0,2.0,42,0.00,,,0.00,Wunderground v.1.15,2013-07-20 16:35:00,
2013-07-20 12:45:00,82.4,58.9,29.79,WSW,256,2.0,3.0,45,0.00,,,0.00,Wunderground v.1.15,2013-07-20 16:45:00,
2013-07-20 12:55:00,82.8,58.0,29.79,West,281,2.0,8.0,43,0.00,,,0.00,Wunderground v.1.15,2013-07-20 16:55:00,
2013-07-20 13:04:00,82.4,57.7,29.79,West,275,2.0,3.0,43,0.00,,,0.00,Wunderground v.1.15,2013-07-20 17:04:00,
2013-07-20 13:15:00,82.4,58.9,29.79,WSW,257,4.0,4.0,45,0.00,,,0.00,Wunderground v.1.15,2013-07-20 17:15:00,
2013-07-20 13:25:00,82.6,55.1,29.80,WSW,254,3.0,7.0,39,0.00,,,0.00,Wunderground v.1.15,2013-07-20 17:25:00,
2013-07-20 13:34:00,82.2,57.5,29.80,West,259,6.0,6.0,43,0.00,,,0.00,Wunderground v.1.15,2013-07-20 17:34:00,
2013-07-20 13:45:00,82.8,58.0,29.80,WSW,258,3.0,3.0,43,0.00,,,0.00,Wunderground v.1.15,2013-07-20 17:45:00,
2013-07-20 13:54:00,83.0,58.8,29.79,WSW,257,3.0,3.0,44,0.00,,,0.00,Wunderground v.1.15,2013-07-20 17:54:00,
2013-07-20 14:04:00,83.2,60.3,29.79,WSW,250,6.0,8.0,46,0.00,,,0.00,Wunderground v.1.15,2013-07-20 18:04:00,
2013-07-20 14:15:00,83.0,60.1,29.80,West,267,2.0,2.0,46,0.00,,,0.00,Wunderground v.1.15,2013-07-20 18:15:00,
2013-07-20 14:24:00,83.0,60.1,29.79,West,273,1.0,1.0,46,0.00,,,0.00,Wunderground v.1.15,2013-07-20 18:24:00,
2013-07-20 14:34:00,83.2,59.6,29.79,NNW,327,3.0,4.0,45,0.00,,,0.00,Wunderground v.1.15,2013-07-20 18:34:00,
2013-07-20 14:45:00,83.2,59.6,29.79,NW,321,3.0,5.0,45,0.00,,,0.00,Wunderground v.1.15,2013-07-20 18:45:00,
2013-07-20 14:54:00,83.0,58.8,29.79,West,266,4.0,4.0,44,0.00,,,0.00,Wunderground v.1.15,2013-07-20 18:54:00,
2013-07-20 15:04:00,83.0,60.1,29.79,NW,316,2.0,2.0,46,0.00,,,0.00,Wunderground v.1.15,2013-07-20 19:04:00,
2013-07-20 15:15:00,83.2,60.3,29.79,NW,309,3.0,5.0,46,0.00,,,0.00,Wunderground v.1.15,2013-07-20 19:15:00,
2013-07-20 15:24:00,82.8,58.0,29.79,West,261,3.0,11.0,43,0.00,,,0.00,Wunderground v.1.15,2013-07-20 19:24:00,
2013-07-20 16:15:00,82.4,60.7,29.79,West,264,3.0,3.0,48,0.00,,,0.00,Wunderground v.1.15,2013-07-20 20:15:00,
2013-07-20 16:24:00,82.6,62.6,29.79,West,269,2.0,3.0,51,0.00,,,0.00,Wunderground v.1.15,2013-07-20 20:24:00,
2013-07-20 16:35:00,82.4,63.0,29.79,West,269,3.0,3.0,52,0.00,,,0.00,Wunderground v.1.15,2013-07-20 20:35:00,
2013-07-20 16:44:00,81.2,61.4,29.79,West,268,2.0,3.0,51,0.00,,,0.00,Wunderground v.1.15,2013-07-20 20:44:00,
2013-07-20 16:55:00,81.4,61.0,29.80,WNW,284,2.0,2.0,50,0.00,,,0.00,Wunderground v.1.15,2013-07-20 20:55:00,
2013-07-20 17:05:00,81.4,61.5,29.80,West,259,4.0,4.0,51,0.00,,,0.00,Wunderground v.1.15,2013-07-20 21:05:00,
2013-07-20 17:25:00,81.2,60.8,29.79,West,261,2.0,4.0,50,0.00,,,0.00,Wunderground v.1.15,2013-07-20 21:25:00,
2013-07-20 17:35:00,81.2,61.9,29.79,West,263,5.0,5.0,52,0.00,,,0.00,Wunderground v.1.15,2013-07-20 21:35:00,
2013-07-20 17:44:00,81.2,61.4,29.79,West,263,3.0,3.0,51,0.00,,,0.00,Wunderground v.1.15,2013-07-20 21:44:00,
2013-07-20 17:55:00,81.4,60.4,29.79,NW,326,3.0,8.0,49,0.00,,,0.00,Wunderground v.1.15,2013-07-20 21:55:00,
2013-07-20 18:05:00,81.2,59.6,29.79,WNW,291,3.0,3.0,48,0.00,,,0.00,Wunderground v.1.15,2013-07-20 22:05:00,
2013-07-20 18:14:00,80.7,60.3,29.79,WNW,285,1.0,1.0,50,0.00,,,0.00,Wunderground v.1.15,2013-07-20 22:14:00,
2013-07-20 18:34:00,80.5,59.6,29.79,NW,304,1.0,1.0,49,0.00,,,0.00,Wunderground v.1.15,2013-07-20 22:34:00,
2013-07-20 18:44:00,79.9,59.0,29.79,West,261,1.0,2.0,49,0.00,,,0.00,Wunderground v.1.15,2013-07-20 22:44:00,
2013-07-20 18:55:00,79.8,59.5,29.79,West,262,1.0,1.0,50,0.00,,,0.00,Wunderground v.1.15,2013-07-20 22:55:00,
2013-07-20 19:04:00,79.8,60.6,29.79,West,263,0.0,0.0,52,0.00,,,0.00,Wunderground v.1.15,2013-07-20 23:04:00,
2013-07-20 19:15:00,79.4,60.2,29.79,West,263,0.0,0.0,52,0.00,,,0.00,Wunderground v.1.15,2013-07-20 23:15:00,
2013-07-20 19:24:00,79.2,59.0,29.80,NW,325,1.0,6.0,50,0.00,,,0.00,Wunderground v.1.15,2013-07-20 23:24:00,
2013-07-20 19:35:00,79.0,59.9,29.80,NW,321,2.0,2.0,52,0.00,,,0.00,Wunderground v.1.15,2013-07-20 23:35:00,
2013-07-20 19:45:00,78.6,59.5,29.79,NW,321,0.0,0.0,52,0.00,,,0.00,Wunderground v.1.15,2013-07-20 23:45:00,
2013-07-20 19:54:00,78.5,59.4,29.81,NW,321,0.0,0.0,52,0.00,,,0.00,Wunderground v.1.15,2013-07-20 23:54:00,
2013-07-20 20:04:00,77.9,59.4,29.81,WNW,303,1.0,1.0,53,0.00,,,0.00,Wunderground v.1.15,2013-07-21 00:04:00,
2013-07-20 20:15:00,77.7,60.2,29.81,WNW,300,1.0,1.0,55,0.00,,,0.00,Wunderground v.1.15,2013-07-21 00:15:00,
2013-07-20 20:24:00,77.2,60.3,29.82,WNW,300,1.0,1.0,56,0.00,,,0.00,Wunderground v.1.15,2013-07-21 00:24:00,
2013-07-20 20:35:00,77.0,60.1,29.82,WNW,300,0.0,0.0,56,0.00,,,0.00,Wunderground v.1.15,2013-07-21 00:35:00,
2013-07-20 20:44:00,76.7,60.3,29.81,WNW,300,0.0,0.0,57,0.00,,,0.00,Wunderground v.1.15,2013-07-21 00:44:00,
2013-07-20 20:55:00,76.3,55.7,29.81,WNW,303,2.0,2.0,49,0.00,,,0.00,Wunderground v.1.15,2013-07-21 00:55:00,
2013-07-20 21:05:00,76.0,54.9,29.81,NW,304,1.0,1.0,48,0.00,,,0.00,Wunderground v.1.15,2013-07-21 01:05:00,
2013-07-20 21:24:00,74.7,55.4,29.82,NW,304,0.0,0.0,51,0.00,,,0.00,Wunderground v.1.15,2013-07-21 01:24:00,
2013-07-20 21:35:00,74.0,55.8,29.82,NW,304,0.0,0.0,53,0.00,,,0.00,Wunderground v.1.15,2013-07-21 01:35:00,
2013-07-20 21:45:00,73.5,56.3,29.83,NW,304,0.0,0.0,55,0.00,,,0.00,Wunderground v.1.15,2013-07-21 01:45:00,
2013-07-20 21:54:00,73.0,56.9,29.84,NW,304,0.0,0.0,57,0.00,,,0.00,Wunderground v.1.15,2013-07-21 01:54:00,
2013-07-20 22:14:00,72.0,56.4,29.85,NW,304,1.0,1.0,58,0.00,,,0.00,Wunderground v.1.15,2013-07-21 02:14:00,
2013-07-20 22:25:00,71.8,56.2,29.85,NW,304,0.0,0.0,58,0.00,,,0.00,Wunderground v.1.15,2013-07-21 02:25:00,
2013-07-20 22:55:00,70.4,56.3,29.85,NW,305,1.0,1.0,61,0.00,,,0.00,Wunderground v.1.15,2013-07-21 02:55:00,
2013-07-20 23:05:00,69.9,56.3,29.85,NW,307,1.0,1.0,62,0.00,,,0.00,Wunderground v.1.15,2013-07-21 03:05:00,
2013-07-20 23:15:00,69.8,55.7,29.86,NW,315,2.0,2.0,61,0.00,,,0.00,Wunderground v.1.15,2013-07-21 03:15:00,
2013-07-20 23:25:00,69.6,55.6,29.86,NW,321,2.0,3.0,61,0.00,,,0.00,Wunderground v.1.15,2013-07-21 03:25:00,
2013-07-20 23:34:00,69.3,55.7,29.86,NW,321,1.0,1.0,62,0.00,,,0.00,Wunderground v.1.15,2013-07-21 03:34:00,
2013-07-20 23:45:00,68.9,55.8,29.87,NW,321,0.0,0.0,63,0.00,,,0.00,Wunderground v.1.15,2013-07-21 03:45:00,
2013-07-20 23:55:00,68.3,55.6,29.87,NW,321,0.0,0.0,64,0.00,,,0.00,Wunderground v.1.15,2013-07-21 03:55:00,